Regional Weather Roundup
Issued by NWS

Home | Current Version | Previous Version | Graphics & Text | Print | Product List | Glossary On
Versions: 1 2 3 4 5 6 7 8 9 10 11 12 13 14 15 16 17 18 19 20 21 22 23 24 25 26 27 28 29 30 31 32 33 34 35 36 37 38 39 40 41 42 43 44 45 46 47 48 49 50
000
ASUS43 KIND 221009
RWRIN

WEATHER ROUNDUP FOR INDIANA
NATIONAL WEATHER SERVICE INDIANAPOLIS IN
500 AM EST WED NOV 22 2017

NOTE: "FAIR" INDICATES FEW OR NO CLOUDS BELOW 12,000 FEET WITH NO
SIGNIFICANT WEATHER AND/OR OBSTRUCTIONS TO VISIBILITY.

* - STATION DOES NOT REPORT WEATHER SUCH AS PRECIPITATION OR FOG.

+ - STATION NOT QUALITY CONTROLLED BY THE NATIONAL WEATHER SERVICE.
    USE DATA WITH CAUTION...ESPECIALLY DEWPOINT AND RELATIVE
    HUMIDITY OBSERVATIONS.

INZ001>003-010>013-019-020-221100-
NORTHWEST INDIANA

CITY           SKY/WX    TMP DP  RH WIND       PRES   REMARKS
KNOX *+        CLOUDY    30  25  80 W8        30.23R WCI  23
LA PORTE +     CLOUDY    32  24  71 NW8       30.23R WCI  25
MICHIGAN CITY+ CLOUDY    32  23  69 N7        30.24R WCI  26
MONTICELLO +   PTCLDY    24  17  74 NW10      30.25R WCI  14
RENSSELAER +   PTCLDY    25  18  74 W8        30.28R WCI  16
VALPARAISO     CLOUDY    30  21  69 W9        30.25R WCI  22

$$

LMZ046-743>745-221100-
SOUTHERN LAKE MICHIGAN

STATION/POSITION TIME  TEMP    WIND        PRES    WAVE
                       AIR SEA DIR/SP/G            HT
                 (UTC) (F)     (DEG/KT/KT) (MB)    (FT)
BURNS HARBOR     0940   33     350/ 14/ 17 1024.4S
MICHIGAN CITY    0940   33     330/ 22/ 25   N/A

$$

INZ004-005-014>016-021>024-221100-
NORTH CENTRAL INDIANA

CITY           SKY/WX    TMP DP  RH WIND       PRES   REMARKS
GOSHEN         CLOUDY    32  21  64 NW12      30.21R WCI  23
LOGANSPORT +   CLOUDY    28  19  69 NW8       30.25R WCI  20
PERU/GRISSOM   MOCLDY    29  22  76 NW9       30.22R WCI  20
ROCHESTER +    CLOUDY    34  27  75 W7        30.23R WCI  28
SOUTH BEND     CLOUDY    31  22  69 NW10      30.23R WCI  22
WARSAW +       CLOUDY    32  25  74 NW8       30.21R WCI  25

$$

INZ006>009-017-018-025>027-221100-
NORTHEAST INDIANA

CITY           SKY/WX    TMP DP  RH WIND       PRES   REMARKS
AUBURN +       CLOUDY    32  23  69 NW3       30.20R
FORT WAYNE     CLOUDY    34  26  72 NW6       30.20R WCI  29
HUNTINGTON +   CLOUDY    32  25  76 W3        30.20R
KENDALLVILLE + CLOUDY    31  23  72 N5        30.20R WCI  26

$$

INZ028-029-035-036-043>045-051>053-221100-
WEST CENTRAL INDIANA

CITY           SKY/WX    TMP DP  RH WIND       PRES   REMARKS
CRAWFORDSVL +  CLEAR     22  18  84 MISG      30.23R
GREENCASTLE +  CLEAR     27  19  74 N3        30.26R
LAFAYETTE      CLEAR     24  18  77 NW9       30.27R WCI  14
TERRE HAUTE    CLEAR     26  19  74 N6        30.28R WCI  19

$$

INZ030>032-037>040-046>048-054>057-064-065-221100-
CENTRAL INDIANA

CITY           SKY/WX    TMP DP  RH WIND       PRES   REMARKS
CP ATTERBURY + CLEAR     28  23  80 NW5       30.25R WCI  23
FISHERS *+     PTCLDY    25  23  93 CALM      30.23R
FRANKFORT +    PTCLDY    28  21  76 NW8       30.26R WCI  20
GREENWOOD *+   CLEAR     29  24  79 NW3       30.24R
INDIANAPOLIS   CLEAR     26  20  77 NW8       30.25R WCI  18
-EAGLE CREEK   PTCLDY    27  20  75 NW10      30.23R WCI  17
KOKOMO +       CLOUDY    28  23  81 NW9       30.23R WCI  19
MARION +       CLOUDY    30  25  81 NW7       30.22R WCI  24
MT COMFORT *+  PTCLDY    27  25  93 NW7       30.23R WCI  19
SHELBYVILLE    CLEAR     26  20  77 NW7       30.23R WCI  18
ZIONSVILLE +   PTCLDY    25  20  83 NW7       30.23S WCI  17

$$

INZ033-034-041-042-049-050-058-059-221100-
EAST CENTRAL INDIANA

CITY           SKY/WX    TMP DP  RH WIND       PRES   REMARKS
MUNCIE         CLOUDY    32  25  75 NW9       30.20R WCI  24
RICHMOND +     CLOUDY    28  27  93 NW7       30.20R WCI  21

$$

INZ060-061-067>069-081>083-085>088-221100-
SOUTHWEST INDIANA

CITY           SKY/WX    TMP DP  RH WIND       PRES   REMARKS
EVANSVILLE     CLEAR     29  23  78 NW5       30.30R WCI  24
HUNTINGBURG +  CLEAR     27  23  85 N5        30.27R WCI  22
WASHINGTON +   CLEAR     28  22  79 NW8       30.28R WCI  19

$$

INZ062-063-066-070>080-084-089>092-221100-
SOUTH CENTRAL AND SOUTHEAST INDIANA

CITY           SKY/WX    TMP DP  RH WIND       PRES   REMARKS
BEDFORD +      CLEAR     28  23  80 NW5       30.24R WCI  23
BLOOMINGTON    CLEAR     27  20  75 CALM      30.24R
MADISON *+     CLEAR     30  25  80 NW3       30.24R
NORTH VERNON + CLEAR     27  21  80 NW5       30.23R WCI  21
SEYMOUR +      CLEAR     28  21  74 NW6       30.25R WCI  22

$$





USA.gov is the U.S. government's official web portal to all federal, state and local government web resources and services.